Year,Month,Day,Hour,Minute,Value (Times are PST for windspeed in km/hr)
2020,01,15,00,00,6.00
2020,01,15,00,01,4.30
2020,01,15,00,02,3.90
2020,01,15,00,03,4.80
2020,01,15,00,04,8.40
2020,01,15,00,05,8.40
2020,01,15,00,06,7.40
2020,01,15,00,07,6.30
2020,01,15,00,08,5.20
2020,01,15,00,09,4.70
2020,01,15,00,10,3.80
2020,01,15,00,11,4.90
2020,01,15,00,12,4.70
2020,01,15,00,13,5.90
2020,01,15,00,14,5.40
2020,01,15,00,15,6.30
2020,01,15,00,16,10.20
2020,01,15,00,17,7.70
2020,01,15,00,18,8.10
2020,01,15,00,19,8.10
2020,01,15,00,20,7.90
2020,01,15,00,21,8.70
2020,01,15,00,22,8.50
2020,01,15,00,23,8.90
2020,01,15,00,24,7.80
2020,01,15,00,25,9.10
2020,01,15,00,26,9.90
2020,01,15,00,27,5.50
2020,01,15,00,28,10.40
2020,01,15,00,29,6.80
2020,01,15,00,30,6.10
2020,01,15,00,31,4.90
2020,01,15,00,32,7.10
2020,01,15,00,33,8.70
2020,01,15,00,34,8.70
2020,01,15,00,35,9.90
2020,01,15,00,36,8.10
2020,01,15,00,37,7.40
2020,01,15,00,38,9.40
2020,01,15,00,39,11.90
2020,01,15,00,40,9.10
2020,01,15,00,41,10.30
2020,01,15,00,42,9.40
2020,01,15,00,43,10.90
2020,01,15,00,44,7.70
2020,01,15,00,45,9.00
2020,01,15,00,46,7.80
2020,01,15,00,47,8.40
2020,01,15,00,48,6.00
2020,01,15,00,49,9.40
2020,01,15,00,50,9.10
2020,01,15,00,51,7.70
2020,01,15,00,52,7.00
2020,01,15,00,53,7.10
2020,01,15,00,54,5.50
2020,01,15,00,55,7.10
2020,01,15,00,56,6.10
2020,01,15,00,57,4.90
2020,01,15,00,58,4.80
2020,01,15,00,59,7.90
2020,01,15,01,00,9.00
2020,01,15,01,01,4.10
2020,01,15,01,02,7.80
2020,01,15,01,03,7.80
2020,01,15,01,04,7.10
2020,01,15,01,05,10.40
2020,01,15,01,06,7.90
2020,01,15,01,07,5.90
2020,01,15,01,08,8.70
2020,01,15,01,09,11.10
2020,01,15,01,10,10.30
2020,01,15,01,11,9.20
2020,01,15,01,12,8.20
2020,01,15,01,13,7.80
2020,01,15,01,14,5.70
2020,01,15,01,15,5.00
2020,01,15,01,16,8.90
2020,01,15,01,17,10.00
2020,01,15,01,18,8.00
2020,01,15,01,19,9.30
2020,01,15,01,20,9.40
2020,01,15,01,21,6.50
2020,01,15,01,22,6.90
2020,01,15,01,23,6.60
2020,01,15,01,24,6.80
2020,01,15,01,25,6.70
2020,01,15,01,26,4.70
2020,01,15,01,27,8.50
2020,01,15,01,28,7.10
2020,01,15,01,29,5.80
2020,01,15,01,30,7.70
2020,01,15,01,31,5.90
2020,01,15,01,32,10.70
2020,01,15,01,33,12.00
2020,01,15,01,34,9.40
2020,01,15,01,35,11.30
2020,01,15,01,36,8.80
2020,01,15,01,37,7.60
2020,01,15,01,38,6.50
2020,01,15,01,39,9.70
2020,01,15,01,40,11.60
2020,01,15,01,41,9.70
2020,01,15,01,42,8.90
2020,01,15,01,43,11.40
2020,01,15,01,44,8.80
2020,01,15,01,45,9.80
2020,01,15,01,46,11.80
2020,01,15,01,47,12.30
2020,01,15,01,48,13.80
2020,01,15,01,49,10.70
2020,01,15,01,50,13.10
2020,01,15,01,51,6.60
2020,01,15,01,52,7.30
2020,01,15,01,53,5.90
2020,01,15,01,54,6.40
2020,01,15,01,55,5.10
2020,01,15,01,56,9.90
2020,01,15,01,57,8.90
2020,01,15,01,58,8.40
2020,01,15,01,59,8.80
2020,01,15,02,00,8.90
2020,01,15,02,01,8.90
2020,01,15,02,02,10.70
2020,01,15,02,03,10.10
2020,01,15,02,04,8.40
2020,01,15,02,05,7.50
2020,01,15,02,06,7.70
2020,01,15,02,07,7.10
2020,01,15,02,08,11.30
2020,01,15,02,09,10.00
2020,01,15,02,10,8.70
2020,01,15,02,11,7.00
2020,01,15,02,12,5.10
2020,01,15,02,13,10.20
2020,01,15,02,14,8.70
2020,01,15,02,15,7.90
2020,01,15,02,16,6.40
2020,01,15,02,17,5.10
2020,01,15,02,18,7.50
2020,01,15,02,19,10.10
2020,01,15,02,20,10.60
2020,01,15,02,21,10.40
2020,01,15,02,22,7.80
2020,01,15,02,23,9.40
2020,01,15,02,24,5.00
2020,01,15,02,25,4.70
2020,01,15,02,26,4.80
2020,01,15,02,27,6.40
2020,01,15,02,28,6.10
2020,01,15,02,29,4.40
2020,01,15,02,30,4.00
2020,01,15,02,31,4.40
2020,01,15,02,32,2.40
2020,01,15,02,33,2.80
2020,01,15,02,34,3.90
2020,01,15,02,35,4.60
2020,01,15,02,36,6.40
2020,01,15,02,37,6.30
2020,01,15,02,38,4.70
2020,01,15,02,39,6.50
2020,01,15,02,40,6.50
2020,01,15,02,41,3.90
2020,01,15,02,42,4.70
2020,01,15,02,43,5.50
2020,01,15,02,44,7.90
2020,01,15,02,45,7.40
2020,01,15,02,46,4.90
2020,01,15,02,47,6.20
2020,01,15,02,48,7.20
2020,01,15,02,49,8.20
2020,01,15,02,50,6.80
2020,01,15,02,51,6.70
2020,01,15,02,52,7.80
2020,01,15,02,53,7.70
2020,01,15,02,54,8.30
2020,01,15,02,55,6.90
2020,01,15,02,56,6.40
2020,01,15,02,57,9.60
2020,01,15,02,58,9.70
2020,01,15,02,59,10.30
2020,01,15,03,00,7.40
2020,01,15,03,01,6.10
2020,01,15,03,02,6.80
2020,01,15,03,03,9.20
2020,01,15,03,04,8.90
2020,01,15,03,05,7.40
2020,01,15,03,06,6.70
2020,01,15,03,07,8.90
2020,01,15,03,08,8.30
2020,01,15,03,09,8.20
2020,01,15,03,10,7.50
2020,01,15,03,11,7.30
2020,01,15,03,12,7.50
2020,01,15,03,13,6.10
2020,01,15,03,14,3.70
2020,01,15,03,15,5.00
2020,01,15,03,16,6.00
2020,01,15,03,17,6.80
2020,01,15,03,18,4.70
2020,01,15,03,19,5.50
2020,01,15,03,20,5.90
2020,01,15,03,21,4.20
2020,01,15,03,22,3.10
2020,01,15,03,23,6.50
2020,01,15,03,24,5.90
2020,01,15,03,25,6.10
2020,01,15,03,26,7.80
2020,01,15,03,27,7.40
2020,01,15,03,28,5.30
2020,01,15,03,29,2.10
2020,01,15,03,30,3.90
2020,01,15,03,31,3.50
2020,01,15,03,32,5.80
2020,01,15,03,33,6.90
2020,01,15,03,34,3.90
2020,01,15,03,35,4.40
2020,01,15,03,36,4.90
2020,01,15,03,37,2.90
2020,01,15,03,38,3.80
2020,01,15,03,39,4.60
2020,01,15,03,40,5.90
2020,01,15,03,41,5.30
2020,01,15,03,42,4.70
2020,01,15,03,43,5.00
2020,01,15,03,44,6.10
2020,01,15,03,45,5.40
2020,01,15,03,46,3.00
2020,01,15,03,47,1.60
2020,01,15,03,48,0.20
2020,01,15,03,49,2.20
2020,01,15,03,50,2.10
2020,01,15,03,51,2.00
2020,01,15,03,52,0.10
2020,01,15,03,53,1.40
2020,01,15,03,54,1.20
2020,01,15,03,55,0.10
2020,01,15,03,56,0.00
2020,01,15,03,57,0.00
2020,01,15,03,58,0.00
2020,01,15,03,59,0.00
2020,01,15,04,00,0.00
2020,01,15,04,01,1.00
2020,01,15,04,02,1.80
2020,01,15,04,03,1.60
2020,01,15,04,04,0.90
2020,01,15,04,05,0.20
2020,01,15,04,06,0.10
2020,01,15,04,07,0.40
2020,01,15,04,08,1.70
2020,01,15,04,09,2.40
2020,01,15,04,10,2.50
2020,01,15,04,11,2.50
2020,01,15,04,12,3.20
2020,01,15,04,13,4.20
2020,01,15,04,14,3.70
2020,01,15,04,15,4.40
2020,01,15,04,16,2.20
2020,01,15,04,17,2.50
2020,01,15,04,18,0.20
2020,01,15,04,19,1.80
2020,01,15,04,20,8.00
2020,01,15,04,21,7.30
2020,01,15,04,22,4.60
2020,01,15,04,23,5.60
2020,01,15,04,24,7.00
2020,01,15,04,25,6.50
2020,01,15,04,26,6.40
2020,01,15,04,27,7.40
2020,01,15,04,28,7.50
2020,01,15,04,29,6.00
2020,01,15,04,30,3.10
2020,01,15,04,31,5.80
2020,01,15,04,32,4.50
2020,01,15,04,33,2.90
2020,01,15,04,34,4.00
2020,01,15,04,35,3.60
2020,01,15,04,36,1.20
2020,01,15,04,37,0.60
2020,01,15,04,38,3.60
2020,01,15,04,39,3.10
2020,01,15,04,40,2.20
2020,01,15,04,41,2.40
2020,01,15,04,42,3.60
2020,01,15,04,43,2.90
2020,01,15,04,44,5.70
2020,01,15,04,45,4.90
2020,01,15,04,46,5.20
2020,01,15,04,47,5.60
2020,01,15,04,48,7.30
2020,01,15,04,49,9.70
2020,01,15,04,50,12.00
2020,01,15,04,51,8.40
2020,01,15,04,52,8.70
2020,01,15,04,53,10.10
2020,01,15,04,54,5.60
2020,01,15,04,55,3.80
2020,01,15,04,56,5.50
2020,01,15,04,57,4.50
2020,01,15,04,58,8.00
2020,01,15,04,59,5.00
2020,01,15,05,00,7.40
2020,01,15,05,01,9.70
2020,01,15,05,02,8.70
2020,01,15,05,03,4.60
2020,01,15,05,04,4.20
2020,01,15,05,05,6.10
2020,01,15,05,06,8.10
2020,01,15,05,07,9.00
2020,01,15,05,08,6.00
2020,01,15,05,09,6.70
2020,01,15,05,10,6.40
2020,01,15,05,11,6.60
2020,01,15,05,12,5.20
2020,01,15,05,13,5.90
2020,01,15,05,14,6.50
2020,01,15,05,15,8.70
2020,01,15,05,16,7.10
2020,01,15,05,17,6.10
2020,01,15,05,18,5.50
2020,01,15,05,19,4.70
2020,01,15,05,20,7.00
2020,01,15,05,21,4.10
2020,01,15,05,22,5.30
2020,01,15,05,23,7.70
2020,01,15,05,24,9.70
2020,01,15,05,25,10.50
2020,01,15,05,26,8.40
2020,01,15,05,27,8.20
2020,01,15,05,28,7.50
2020,01,15,05,29,8.20
2020,01,15,05,30,5.80
2020,01,15,05,31,5.80
2020,01,15,05,32,8.50
2020,01,15,05,33,8.10
2020,01,15,05,34,9.30
2020,01,15,05,35,7.10
2020,01,15,05,36,6.60
2020,01,15,05,37,9.30
2020,01,15,05,38,8.00
2020,01,15,05,39,9.70
2020,01,15,05,40,10.10
2020,01,15,05,41,8.90
2020,01,15,05,42,7.10
2020,01,15,05,43,6.60
2020,01,15,05,44,8.40
2020,01,15,05,45,9.10
2020,01,15,05,46,8.60
2020,01,15,05,47,6.00
2020,01,15,05,48,5.50
2020,01,15,05,49,6.30
2020,01,15,05,50,6.10
2020,01,15,05,51,6.50
2020,01,15,05,52,7.70
2020,01,15,05,53,3.70
2020,01,15,05,54,6.10
2020,01,15,05,55,6.00
2020,01,15,05,56,5.90
2020,01,15,05,57,6.10
2020,01,15,05,58,8.40
2020,01,15,05,59,6.00
2020,01,15,06,00,4.80
2020,01,15,06,01,4.50
2020,01,15,06,02,6.60
2020,01,15,06,03,8.10
2020,01,15,06,04,7.10
2020,01,15,06,05,6.00
2020,01,15,06,06,5.60
2020,01,15,06,07,5.30
2020,01,15,06,08,5.90
2020,01,15,06,09,5.30
2020,01,15,06,10,6.00
2020,01,15,06,11,6.20
2020,01,15,06,12,8.20
2020,01,15,06,13,8.30
2020,01,15,06,14,6.50
2020,01,15,06,15,7.40
2020,01,15,06,16,8.00
2020,01,15,06,17,7.10
2020,01,15,06,18,6.60
2020,01,15,06,19,5.60
2020,01,15,06,20,7.50
2020,01,15,06,21,5.70
2020,01,15,06,22,6.30
2020,01,15,06,23,8.50
2020,01,15,06,24,5.40
2020,01,15,06,25,7.80
2020,01,15,06,26,8.10
2020,01,15,06,27,6.50
2020,01,15,06,28,11.30
2020,01,15,06,29,9.70
2020,01,15,06,30,11.60
2020,01,15,06,31,11.10
2020,01,15,06,32,7.80
2020,01,15,06,33,9.70
2020,01,15,06,34,7.80
2020,01,15,06,35,7.50
2020,01,15,06,36,4.00
2020,01,15,06,37,7.00
2020,01,15,06,38,7.10
2020,01,15,06,39,9.10
2020,01,15,06,40,11.30
2020,01,15,06,41,12.60
2020,01,15,06,42,11.00
2020,01,15,06,43,7.50
2020,01,15,06,44,7.60
2020,01,15,06,45,9.00
2020,01,15,06,46,6.40
2020,01,15,06,47,7.20
2020,01,15,06,48,6.00
2020,01,15,06,49,6.40
2020,01,15,06,50,8.70
2020,01,15,06,51,10.70
2020,01,15,06,52,11.60
2020,01,15,06,53,6.40
2020,01,15,06,54,9.10
2020,01,15,06,55,7.90
2020,01,15,06,56,7.40
2020,01,15,06,57,9.10
2020,01,15,06,58,7.90
2020,01,15,06,59,13.20
2020,01,15,07,00,6.20
2020,01,15,07,01,5.80
2020,01,15,07,02,9.40
2020,01,15,07,03,10.80
2020,01,15,07,04,9.40
2020,01,15,07,05,11.00
2020,01,15,07,06,12.00
2020,01,15,07,07,10.90
2020,01,15,07,08,12.20
2020,01,15,07,09,7.70
2020,01,15,07,10,7.80
2020,01,15,07,11,9.90
2020,01,15,07,12,8.10
2020,01,15,07,13,7.50
2020,01,15,07,14,7.30
2020,01,15,07,15,11.40
2020,01,15,07,16,8.50
2020,01,15,07,17,9.80
2020,01,15,07,18,12.20
2020,01,15,07,19,9.10
2020,01,15,07,20,13.30
2020,01,15,07,21,11.60
2020,01,15,07,22,13.30
2020,01,15,07,23,10.40
2020,01,15,07,24,9.20
2020,01,15,07,25,8.00
2020,01,15,07,26,6.40
2020,01,15,07,27,11.50
2020,01,15,07,28,12.40
2020,01,15,07,29,12.00
2020,01,15,07,30,12.60
2020,01,15,07,31,13.30
2020,01,15,07,32,10.90
2020,01,15,07,33,12.60
2020,01,15,07,34,13.10
2020,01,15,07,35,10.70
2020,01,15,07,36,10.40
2020,01,15,07,37,10.60
2020,01,15,07,38,11.50
2020,01,15,07,39,8.20
2020,01,15,07,40,12.20
2020,01,15,07,41,12.60
2020,01,15,07,42,8.90
2020,01,15,07,43,10.40
2020,01,15,07,44,9.30
2020,01,15,07,45,9.00
2020,01,15,07,46,12.60
2020,01,15,07,47,12.00
2020,01,15,07,48,9.30
2020,01,15,07,49,9.60
2020,01,15,07,50,10.50
2020,01,15,07,51,13.30
2020,01,15,07,52,14.90
2020,01,15,07,53,13.60
2020,01,15,07,54,8.70
2020,01,15,07,55,10.10
2020,01,15,07,56,5.90
2020,01,15,07,57,10.50
2020,01,15,07,58,7.10
2020,01,15,07,59,10.60
2020,01,15,08,00,10.70
2020,01,15,08,01,6.70
2020,01,15,08,02,9.00
2020,01,15,08,03,10.30
2020,01,15,08,04,8.50
2020,01,15,08,05,12.40
2020,01,15,08,06,8.60
2020,01,15,08,07,12.60
2020,01,15,08,08,10.50
2020,01,15,08,09,10.90
2020,01,15,08,10,14.70
2020,01,15,08,11,12.80
2020,01,15,08,12,15.70
2020,01,15,08,13,9.00
2020,01,15,08,14,11.70
2020,01,15,08,15,8.90
2020,01,15,08,16,6.10
2020,01,15,08,17,9.20
2020,01,15,08,18,11.20
2020,01,15,08,19,15.40
2020,01,15,08,20,14.60
2020,01,15,08,21,10.70
2020,01,15,08,22,9.90
2020,01,15,08,23,10.70
2020,01,15,08,24,13.80
2020,01,15,08,25,13.00
2020,01,15,08,26,10.80
2020,01,15,08,27,9.40
2020,01,15,08,28,9.50
2020,01,15,08,29,13.80
2020,01,15,08,30,16.60
2020,01,15,08,31,10.00
2020,01,15,08,32,11.70
2020,01,15,08,33,6.40
2020,01,15,08,34,11.70
2020,01,15,08,35,10.60
2020,01,15,08,36,11.80
2020,01,15,08,37,10.90
2020,01,15,08,38,9.30
2020,01,15,08,39,9.30
2020,01,15,08,40,11.60
2020,01,15,08,41,11.80
2020,01,15,08,42,11.70
2020,01,15,08,43,11.30
2020,01,15,08,44,8.10
2020,01,15,08,45,5.20
2020,01,15,08,46,7.20
2020,01,15,08,47,9.10
2020,01,15,08,48,8.60
2020,01,15,08,49,6.10
2020,01,15,08,50,6.40
2020,01,15,08,51,9.50
2020,01,15,08,52,10.60
2020,01,15,08,53,12.00
2020,01,15,08,54,11.70
2020,01,15,08,55,8.20
2020,01,15,08,56,8.80
2020,01,15,08,57,9.00
2020,01,15,08,58,5.00
2020,01,15,08,59,3.10
2020,01,15,09,00,8.70
2020,01,15,09,01,8.10
2020,01,15,09,02,8.10
2020,01,15,09,03,6.70
2020,01,15,09,04,15.00
2020,01,15,09,05,11.40
2020,01,15,09,06,8.40
2020,01,15,09,07,13.10
2020,01,15,09,08,14.80
2020,01,15,09,09,10.10
2020,01,15,09,10,11.50
2020,01,15,09,11,10.40
2020,01,15,09,12,9.70
2020,01,15,09,13,8.90
2020,01,15,09,14,12.20
2020,01,15,09,15,11.80
2020,01,15,09,16,8.80
2020,01,15,09,17,7.60
2020,01,15,09,18,8.10
2020,01,15,09,19,8.30
2020,01,15,09,20,6.10
2020,01,15,09,21,8.00
2020,01,15,09,22,7.90
2020,01,15,09,23,11.40
2020,01,15,09,24,11.30
2020,01,15,09,25,11.90
2020,01,15,09,26,11.00
2020,01,15,09,27,9.50
2020,01,15,09,28,7.60
2020,01,15,09,29,8.80
2020,01,15,09,30,6.40
2020,01,15,09,31,6.40
2020,01,15,09,32,6.70
2020,01,15,09,33,6.70
2020,01,15,09,34,5.30
2020,01,15,09,35,8.90
2020,01,15,09,36,9.40
2020,01,15,09,37,7.60
2020,01,15,09,38,9.40
2020,01,15,09,39,7.10
2020,01,15,09,40,5.60
2020,01,15,09,41,9.70
2020,01,15,09,42,10.70
2020,01,15,09,43,9.50
2020,01,15,09,44,6.10
2020,01,15,09,45,8.00
2020,01,15,09,46,13.60
2020,01,15,09,47,10.40
2020,01,15,09,48,8.70
2020,01,15,09,49,6.00
2020,01,15,09,50,5.40
2020,01,15,09,51,7.20
2020,01,15,09,52,4.80
2020,01,15,09,53,7.80
2020,01,15,09,54,14.70
2020,01,15,09,55,11.00
2020,01,15,09,56,9.90
2020,01,15,09,57,5.90
2020,01,15,09,58,3.80
2020,01,15,09,59,7.20
2020,01,15,10,00,5.70
2020,01,15,10,01,5.40
2020,01,15,10,02,4.30
2020,01,15,10,03,7.40
2020,01,15,10,04,6.70
2020,01,15,10,05,6.00
2020,01,15,10,06,6.40
2020,01,15,10,07,9.70
2020,01,15,10,08,11.20
2020,01,15,10,09,7.60
2020,01,15,10,10,10.70
2020,01,15,10,11,6.50
2020,01,15,10,12,5.50
2020,01,15,10,13,6.50
2020,01,15,10,14,9.50
2020,01,15,10,15,10.00
2020,01,15,10,16,10.90
2020,01,15,10,17,9.70
2020,01,15,10,18,8.50
2020,01,15,10,19,12.40
2020,01,15,10,20,9.90
2020,01,15,10,21,12.50
2020,01,15,10,22,12.10
2020,01,15,10,23,12.70
2020,01,15,10,24,9.30
2020,01,15,10,25,7.30
2020,01,15,10,26,6.70
2020,01,15,10,27,6.40
2020,01,15,10,28,9.70
2020,01,15,10,29,8.20
2020,01,15,10,30,9.00
2020,01,15,10,31,11.70
2020,01,15,10,32,9.30
2020,01,15,10,33,9.20
2020,01,15,10,34,8.00
2020,01,15,10,35,8.50
2020,01,15,10,36,8.20
2020,01,15,10,37,6.80
2020,01,15,10,38,6.60
2020,01,15,10,39,8.10
2020,01,15,10,40,8.00
2020,01,15,10,41,5.10
2020,01,15,10,42,4.20
2020,01,15,10,43,5.00
2020,01,15,10,44,7.30
2020,01,15,10,45,7.00
2020,01,15,10,46,5.60
2020,01,15,10,47,7.90
2020,01,15,10,48,5.90
2020,01,15,10,49,7.20
2020,01,15,10,50,6.20
2020,01,15,10,51,5.60
2020,01,15,10,52,6.80
2020,01,15,10,53,8.40
2020,01,15,10,54,5.40
2020,01,15,10,55,7.70
2020,01,15,10,56,9.30
2020,01,15,10,57,6.90
2020,01,15,10,58,4.70
2020,01,15,10,59,5.60
2020,01,15,11,00,3.20
2020,01,15,11,01,4.60
2020,01,15,11,02,3.70
2020,01,15,11,03,3.60
2020,01,15,11,04,0.40
2020,01,15,11,05,0.90
2020,01,15,11,06,0.20
2020,01,15,11,07,2.90
2020,01,15,11,08,5.90
2020,01,15,11,09,3.70
2020,01,15,11,10,3.90
2020,01,15,11,11,2.40
2020,01,15,11,12,4.10
2020,01,15,11,13,7.40
2020,01,15,11,14,6.20
2020,01,15,11,15,5.90
2020,01,15,11,16,10.90
2020,01,15,11,17,8.70
2020,01,15,11,18,9.70
2020,01,15,11,19,9.70
2020,01,15,11,20,10.60
2020,01,15,11,21,7.00
2020,01,15,11,22,8.70
2020,01,15,11,23,10.80
2020,01,15,11,24,16.30
2020,01,15,11,25,16.70
2020,01,15,11,26,15.90
2020,01,15,11,27,14.60
2020,01,15,11,28,14.10
2020,01,15,11,29,11.00
2020,01,15,11,30,14.00
2020,01,15,11,31,13.90
2020,01,15,11,32,14.20
2020,01,15,11,33,15.90
2020,01,15,11,34,13.00
2020,01,15,11,35,12.40
2020,01,15,11,36,8.30
2020,01,15,11,37,11.80
2020,01,15,11,38,8.10
2020,01,15,11,39,13.10
2020,01,15,11,40,10.40
2020,01,15,11,41,10.50
2020,01,15,11,42,10.50
2020,01,15,11,43,12.60
2020,01,15,11,44,9.40
2020,01,15,11,45,11.70
2020,01,15,11,46,8.90
2020,01,15,11,47,10.40
2020,01,15,11,48,13.40
2020,01,15,11,49,12.20
2020,01,15,11,50,6.70
2020,01,15,11,51,11.00
2020,01,15,11,52,13.40
2020,01,15,11,53,12.30
2020,01,15,11,54,10.00
2020,01,15,11,55,8.70
2020,01,15,11,56,10.50
2020,01,15,11,57,15.50
2020,01,15,11,58,12.50
2020,01,15,11,59,9.80
2020,01,15,12,00,12.10
2020,01,15,12,01,12.40
2020,01,15,12,02,11.50
2020,01,15,12,03,13.70
2020,01,15,12,04,9.60
2020,01,15,12,05,11.70
2020,01,15,12,06,12.20
2020,01,15,12,07,11.30
2020,01,15,12,08,11.20
2020,01,15,12,09,11.30
2020,01,15,12,10,13.00
2020,01,15,12,11,13.90
2020,01,15,12,12,19.10
2020,01,15,12,13,14.90
2020,01,15,12,14,10.40
2020,01,15,12,15,14.00
2020,01,15,12,16,10.00
2020,01,15,12,17,9.80
2020,01,15,12,18,12.50
2020,01,15,12,19,12.90
2020,01,15,12,20,11.10
2020,01,15,12,21,11.50
2020,01,15,12,22,14.30
2020,01,15,12,23,13.00
2020,01,15,12,24,10.20
2020,01,15,12,25,13.30
2020,01,15,12,26,17.30
2020,01,15,12,27,16.20
2020,01,15,12,28,16.50
2020,01,15,12,29,18.60
2020,01,15,12,30,14.70
2020,01,15,12,31,17.30
2020,01,15,12,32,19.00
2020,01,15,12,33,12.20
2020,01,15,12,34,17.60
2020,01,15,12,35,18.80
2020,01,15,12,36,20.70
2020,01,15,12,37,21.20
2020,01,15,12,38,17.80
2020,01,15,12,39,20.80
2020,01,15,12,40,21.10
2020,01,15,12,41,18.20
2020,01,15,12,42,15.10
2020,01,15,12,43,21.30
2020,01,15,12,44,15.30
2020,01,15,12,45,19.80
2020,01,15,12,46,18.90
2020,01,15,12,47,19.30
2020,01,15,12,48,20.10
2020,01,15,12,49,18.60
2020,01,15,12,50,18.90
2020,01,15,12,51,17.70
2020,01,15,12,52,18.40
2020,01,15,12,53,15.30
2020,01,15,12,54,24.10
2020,01,15,12,55,20.40
2020,01,15,12,56,22.00
2020,01,15,12,57,23.10
2020,01,15,12,58,21.30
2020,01,15,12,59,17.20
2020,01,15,13,00,27.30
2020,01,15,13,01,19.60
2020,01,15,13,02,25.90
2020,01,15,13,03,16.90
2020,01,15,13,04,18.20
2020,01,15,13,05,23.50
2020,01,15,13,06,17.80
2020,01,15,13,07,13.80
2020,01,15,13,08,17.90
2020,01,15,13,09,17.40
2020,01,15,13,10,19.90
2020,01,15,13,11,25.50
2020,01,15,13,12,31.90
2020,01,15,13,13,20.20
2020,01,15,13,14,21.10
2020,01,15,13,15,17.20
2020,01,15,13,16,24.00
2020,01,15,13,17,29.10
2020,01,15,13,18,24.40
2020,01,15,13,19,20.40
2020,01,15,13,20,23.30
2020,01,15,13,21,22.40
2020,01,15,13,22,21.40
2020,01,15,13,23,22.40
2020,01,15,13,24,20.90
2020,01,15,13,25,21.70
2020,01,15,13,26,20.90
2020,01,15,13,27,21.70
2020,01,15,13,28,19.40
2020,01,15,13,29,21.80
2020,01,15,13,30,21.20
2020,01,15,13,31,15.70
2020,01,15,13,32,19.20
2020,01,15,13,33,18.90
2020,01,15,13,34,22.10
2020,01,15,13,35,19.10
2020,01,15,13,36,26.60
2020,01,15,13,37,17.20
2020,01,15,13,38,22.50
2020,01,15,13,39,20.40
2020,01,15,13,40,20.00
2020,01,15,13,41,31.20
2020,01,15,13,42,26.70
2020,01,15,13,43,27.20
2020,01,15,13,44,25.10
2020,01,15,13,45,22.80
2020,01,15,13,46,26.70
2020,01,15,13,47,26.60
2020,01,15,13,48,23.60
2020,01,15,13,49,24.40
2020,01,15,13,50,34.20
2020,01,15,13,51,25.40
2020,01,15,13,52,26.60
2020,01,15,13,53,24.40
2020,01,15,13,54,23.30
2020,01,15,13,55,21.90
2020,01,15,13,56,20.70
2020,01,15,13,57,18.20
2020,01,15,13,58,23.80
2020,01,15,13,59,17.10
2020,01,15,14,00,26.20
2020,01,15,14,01,20.50
2020,01,15,14,02,29.50
2020,01,15,14,03,24.10
2020,01,15,14,04,22.50
2020,01,15,14,05,22.20
2020,01,15,14,06,19.90
2020,01,15,14,07,22.50
2020,01,15,14,08,27.60
2020,01,15,14,09,27.10
2020,01,15,14,10,26.30
2020,01,15,14,11,24.50
2020,01,15,14,12,23.40
2020,01,15,14,13,21.30
2020,01,15,14,14,23.30
2020,01,15,14,15,23.10
2020,01,15,14,16,26.00
2020,01,15,14,17,28.70
2020,01,15,14,18,24.80
2020,01,15,14,19,21.70
2020,01,15,14,20,27.40
2020,01,15,14,21,22.90
2020,01,15,14,22,20.00
2020,01,15,14,23,19.30
2020,01,15,14,24,29.30
2020,01,15,14,25,23.60
2020,01,15,14,26,25.50
2020,01,15,14,27,18.40
2020,01,15,14,28,15.40
2020,01,15,14,29,31.20
2020,01,15,14,30,26.40
2020,01,15,14,31,25.90
2020,01,15,14,32,23.10
2020,01,15,14,33,24.80
2020,01,15,14,34,29.30
2020,01,15,14,35,31.30
2020,01,15,14,36,27.70
2020,01,15,14,37,31.50
2020,01,15,14,38,28.40
2020,01,15,14,39,21.80
2020,01,15,14,40,24.20
2020,01,15,14,41,26.00
2020,01,15,14,42,24.80
2020,01,15,14,43,17.90
2020,01,15,14,44,22.20
2020,01,15,14,45,20.00
2020,01,15,14,46,21.90
2020,01,15,14,47,24.70
2020,01,15,14,48,26.80
2020,01,15,14,49,33.10
2020,01,15,14,50,28.00
2020,01,15,14,51,22.00
2020,01,15,14,52,20.20
2020,01,15,14,53,22.50
2020,01,15,14,54,27.90
2020,01,15,14,55,32.00
2020,01,15,14,56,20.20
2020,01,15,14,57,31.10
2020,01,15,14,58,30.00
2020,01,15,14,59,25.70
2020,01,15,15,00,30.50
2020,01,15,15,01,27.90
2020,01,15,15,02,27.60
2020,01,15,15,03,30.10
2020,01,15,15,04,24.90
2020,01,15,15,05,28.60
2020,01,15,15,06,23.90
2020,01,15,15,07,27.20
2020,01,15,15,08,21.80
2020,01,15,15,09,35.10
2020,01,15,15,10,31.60
2020,01,15,15,11,28.20
2020,01,15,15,12,32.00
2020,01,15,15,13,33.00
2020,01,15,15,14,30.30
2020,01,15,15,15,33.20
2020,01,15,15,16,27.90
2020,01,15,15,17,33.60
2020,01,15,15,18,29.90
2020,01,15,15,19,25.30
2020,01,15,15,20,27.80
2020,01,15,15,21,24.10
2020,01,15,15,22,30.20
2020,01,15,15,23,22.50
2020,01,15,15,24,30.50
2020,01,15,15,25,30.30
2020,01,15,15,26,36.80
2020,01,15,15,27,25.80
2020,01,15,15,28,23.20
2020,01,15,15,29,28.40
2020,01,15,15,30,28.70
2020,01,15,15,31,29.70
2020,01,15,15,32,27.70
2020,01,15,15,33,24.20
2020,01,15,15,34,21.90
2020,01,15,15,35,27.80
2020,01,15,15,36,27.80
2020,01,15,15,37,21.80
2020,01,15,15,38,24.10
2020,01,15,15,39,23.20
2020,01,15,15,40,21.80
2020,01,15,15,41,23.10
2020,01,15,15,42,24.50
2020,01,15,15,43,24.30
2020,01,15,15,44,25.80
2020,01,15,15,45,27.10
2020,01,15,15,46,25.10
2020,01,15,15,47,21.60
2020,01,15,15,48,32.60
2020,01,15,15,49,25.10
2020,01,15,15,50,30.60
2020,01,15,15,51,24.20
2020,01,15,15,52,24.70
2020,01,15,15,53,22.50
2020,01,15,15,54,21.00
2020,01,15,15,55,26.70
2020,01,15,15,56,18.50
2020,01,15,15,57,27.30
2020,01,15,15,58,31.60
2020,01,15,15,59,27.40
2020,01,15,16,00,21.90
2020,01,15,16,01,22.80
2020,01,15,16,02,25.30
2020,01,15,16,03,30.00
2020,01,15,16,04,28.70
2020,01,15,16,05,23.60
2020,01,15,16,06,28.40
2020,01,15,16,07,27.60
2020,01,15,16,08,28.20
2020,01,15,16,09,28.00
2020,01,15,16,10,30.00
2020,01,15,16,11,22.80
2020,01,15,16,12,24.40
2020,01,15,16,13,26.90
2020,01,15,16,14,24.20
2020,01,15,16,15,25.80
2020,01,15,16,16,27.40
2020,01,15,16,17,18.50
2020,01,15,16,18,21.90
2020,01,15,16,19,21.20
2020,01,15,16,20,23.20
2020,01,15,16,21,22.20
2020,01,15,16,22,25.10
2020,01,15,16,23,33.00
2020,01,15,16,24,31.00
2020,01,15,16,25,23.00
2020,01,15,16,26,32.70
2020,01,15,16,27,25.50
2020,01,15,16,28,20.40
2020,01,15,16,29,20.40
2020,01,15,16,30,21.50
2020,01,15,16,31,26.60
2020,01,15,16,32,25.70
2020,01,15,16,33,30.30
2020,01,15,16,34,28.20
2020,01,15,16,35,22.10
2020,01,15,16,36,17.10
2020,01,15,16,37,21.50
2020,01,15,16,38,24.80
2020,01,15,16,39,22.00
2020,01,15,16,40,19.20
2020,01,15,16,41,16.10
2020,01,15,16,42,15.20
2020,01,15,16,43,20.80
2020,01,15,16,44,18.70
2020,01,15,16,45,16.90
2020,01,15,16,46,18.60
2020,01,15,16,47,20.00
2020,01,15,16,48,15.90
2020,01,15,16,49,16.60
2020,01,15,16,50,13.90
2020,01,15,16,51,18.80
2020,01,15,16,52,16.50
2020,01,15,16,53,15.90
2020,01,15,16,54,11.80
2020,01,15,16,55,13.60
2020,01,15,16,56,17.40
2020,01,15,16,57,15.10
2020,01,15,16,58,17.50
2020,01,15,16,59,16.30
2020,01,15,17,00,21.60
2020,01,15,17,01,19.20
2020,01,15,17,02,24.00
2020,01,15,17,03,18.90
2020,01,15,17,04,16.40
2020,01,15,17,05,12.20
2020,01,15,17,06,22.10
2020,01,15,17,07,23.10
2020,01,15,17,08,22.60
2020,01,15,17,09,25.40
2020,01,15,17,10,31.10
2020,01,15,17,11,21.10
2020,01,15,17,12,21.80
2020,01,15,17,13,22.70
2020,01,15,17,14,22.20
2020,01,15,17,15,20.60
2020,01,15,17,16,22.70
2020,01,15,17,17,14.50
2020,01,15,17,18,14.90
2020,01,15,17,19,17.20
2020,01,15,17,20,31.60
2020,01,15,17,21,24.80
2020,01,15,17,22,23.50
2020,01,15,17,23,24.50
2020,01,15,17,24,20.50
2020,01,15,17,25,25.70
2020,01,15,17,26,19.20
2020,01,15,17,27,26.40
2020,01,15,17,28,24.00
2020,01,15,17,29,19.60
2020,01,15,17,30,16.00
2020,01,15,17,31,26.60
2020,01,15,17,32,20.10
2020,01,15,17,33,23.30
2020,01,15,17,34,20.00
2020,01,15,17,35,18.70
2020,01,15,17,36,18.70
2020,01,15,17,37,22.50
2020,01,15,17,38,20.50
2020,01,15,17,39,21.30
2020,01,15,17,40,18.20
2020,01,15,17,41,15.10
2020,01,15,17,42,17.60
2020,01,15,17,43,21.80